FW6919 Weather Reports


Display with metric or nautical units.
time (UTC)temp
F
wind
direction
speed
MPH
gust
MPH
rain 1hr
in
rain 24hr
in
rain mn
in
humidity
%
barometer
mb
20260903093613 77 16 2.0 4.0 0.00 0.00 0.00 82 1013.9
20260903093112 77 16 3.0 3.0 0.00 0.00 0.00 82 1013.7
20260903092613 78 15 3.0 3.0 0.00 0.00 0.00 82 1013.7
20260903092109 78 15 2.0 3.0 0.00 0.00 0.00 81 1013.7
20260903091614 78 15 2.0 3.0 0.00 0.00 0.00 82 1013.8
20260903091114 78 0 0.0 2.0 0.00 0.00 0.00 81 1013.9
20260903090610 78 0 0.0 3.0 0.00 0.00 0.00 81 1013.9
20260903090115 78 15 1.0 3.0 0.00 0.00 0.00 81 1013.9
20260903085612 78 15 1.0 3.0 0.00 0.00 0.00 80 1013.9
20260903085112 78 15 1.0 3.0 0.00 0.00 0.00 80 1013.8
20260903084611 78 15 1.0 2.0 0.00 0.00 0.00 80 1013.8
20260903084113 78 15 1.0 2.0 0.00 0.00 0.00 80 1013.7
20260903083611 78 15 1.0 3.0 0.00 0.00 0.00 80 1013.8
20260903083113 78 15 2.0 3.0 0.00 0.00 0.00 80 1013.9
20260903082614 78 15 2.0 3.0 0.00 0.00 0.00 80 1013.7
20260903082113 78 15 1.0 3.0 0.00 0.00 0.00 80 1013.7
20260903081612 78 0 0.0 2.0 0.00 0.00 0.00 80 1013.8
20260903081111 78 15 1.0 4.0 0.00 0.00 0.00 80 1013.8
20260903080612 78 15 1.0 4.0 0.00 0.00 0.00 80 1013.7
20260903080111 78 15 2.0 4.0 0.00 0.00 0.00 80 1013.8
20260903075610 78 15 2.0 3.0 0.00 0.00 0.00 79 1013.7
20260903075113 79 16 1.0 3.0 0.00 0.00 0.00 79 1013.8
20260903074613 79 15 1.0 3.0 0.00 0.00 0.00 79 1013.8
20260903074114 79 16 2.0 4.0 0.00 0.00 0.00 79 1013.7
20260903073612 79 15 2.0 4.0 0.00 0.00 0.00 78 1013.9
20260903073114 79 15 2.0 3.0 0.00 0.00 0.00 78 1013.9
20260903072642 79 15 2.0 3.0 0.00 0.00 0.00 78 1013.8
20260903072141 79 15 1.0 2.0 0.00 0.00 0.00 78 1013.7
20260903071644 79 15 1.0 3.0 0.00 0.00 0.00 77 1013.7
20260903071142 80 15 1.0 4.0 0.00 0.00 0.00 77 1013.8
20260903070642 80 15 1.0 5.0 0.00 0.00 0.00 77 1013.8
20260903070145 80 15 2.0 5.0 0.00 0.00 0.00 77 1013.8
20260903065641 80 15 3.0 4.0 0.00 0.00 0.00 76 1013.9
20260903065143 80 16 2.0 5.0 0.00 0.00 0.00 76 1013.9
20260903064639 80 17 2.0 5.0 0.00 0.00 0.00 75 1014.0
20260903064139 81 18 4.0 5.0 0.00 0.00 0.00 75 1014.1
20260903063639 81 22 2.0 8.0 0.00 0.00 0.00 75 1014.1
20260903063138 81 20 3.0 8.0 0.00 0.00 0.00 74 1014.1
20260903062637 81 16 4.0 10.0 0.00 0.00 0.00 74 1014.1
20260903062138 81 24 3.0 12.0 0.00 0.00 0.00 74 1014.2
20260903061638 81 22 5.0 12.0 0.00 0.00 0.00 73 1014.2
20260903061137 81 22 2.0 9.0 0.00 0.00 0.00 73 1014.3
20260903060637 82 16 1.0 9.0 0.00 0.00 0.00 73 1014.3
20260903060139 82 27 5.0 10.0 0.00 0.00 0.00 72 1014.3
20260903055636 82 19 9.0 10.0 0.00 0.00 0.00 72 1014.4
20260903055136 82 22 4.0 12.0 0.00 0.00 0.00 71 1014.4
20260903054635 82 22 9.0 12.0 0.00 0.00 0.00 71 1014.4
20260903054134 82 19 5.0 14.0 0.00 0.00 0.00 71 1014.4
20260903053634 82 28 9.0 14.0 0.00 0.00 0.00 71 1014.3
20260903053134 83 25 11.0 14.0 0.00 0.00 0.00 71 1014.4
20260903052634 83 21 2.0 12.0 0.00 0.00 0.00 70 1014.4
20260903052136 83 22 5.0 10.0 0.00 0.00 0.00 70 1014.3
20260903051634 83 22 6.0 9.0 0.00 0.00 0.00 69 1014.3
20260903051134 83 23 2.0 10.0 0.00 0.00 0.00 68 1014.3
20260903050633 84 26 4.0 11.0 0.00 0.00 0.00 68 1014.3
20260903050134 84 27 6.0 11.0 0.00 0.00 0.00 67 1014.2
20260903045631 84 26 8.0 13.0 0.00 0.00 0.00 67 1014.3
20260903045132 84 24 8.0 13.0 0.00 0.00 0.00 67 1014.2
20260903044631 84 26 4.0 9.0 0.00 0.00 0.00 67 1014.3
20260903044132 84 24 5.0 9.0 0.00 0.00 0.00 66 1014.3
20260903043630 85 23 5.0 8.0 0.00 0.00 0.00 66 1014.2
20260903043131 85 0 0.0 9.0 0.00 0.00 0.00 66 1014.1
20260903042630 85 24 2.0 9.0 0.00 0.00 0.00 65 1014.2
20260903042130 85 25 3.0 9.0 0.00 0.00 0.00 65 1014.2
20260903041630 86 23 3.0 9.0 0.00 0.00 0.00 65 1014.3
20260903041130 86 28 2.0 12.0 0.00 0.00 0.00 65 1014.4
20260903040628 86 33 4.0 12.0 0.00 0.00 0.00 64 1014.3
20260903040129 86 32 6.0 12.0 0.00 0.00 0.00 64 1014.2
20260903035628 86 27 5.0 12.0 0.00 0.00 0.00 64 1014.1
20260903035127 86 27 5.0 10.0 0.00 0.00 0.00 63 1014.2
20260903034626 87 21 7.0 11.0 0.00 0.00 0.00 63 1014.2
20260903034127 87 28 5.0 13.0 0.00 0.00 0.00 63 1014.1
20260903033628 87 33 9.0 13.0 0.00 0.00 0.00 62 1014.1
20260903033127 87 28 11.0 12.0 0.00 0.00 0.00 62 1014.2
20260903032625 88 33 6.0 12.0 0.00 0.00 0.00 62 1014.3
20260903032127 88 32 6.0 12.0 0.00 0.00 0.00 61 1014.1
20260903031626 88 31 5.0 12.0 0.00 0.00 0.00 61 1014.2
20260903031125 88 34 5.0 12.0 0.00 0.00 0.00 60 1014.0
20260903030625 89 51 7.0 14.0 0.00 0.00 0.00 60 1014.0
20260903030125 89 36 6.0 14.0 0.00 0.00 0.00 59 1014.0
20260903025625 89 27 14.0 17.0 0.00 0.00 0.00 58 1013.9
20260903025125 89 26 11.0 17.0 0.00 0.00 0.00 58 1013.8
20260903024625 90 24 8.0 16.0 0.00 0.00 0.00 57 1013.7
20260903024124 90 23 10.0 14.0 0.00 0.00 0.00 56 1013.6
20260903023624 90 27 5.0 13.0 0.00 0.00 0.00 56 1013.6
20260903023123 90 25 8.0 14.0 0.00 0.00 0.00 55 1013.5
20260903022624 90 146 5.0 14.0 0.00 0.00 0.00 55 1013.4
20260903022123 91 142 6.0 13.0 0.00 0.00 0.00 55 1013.4
20260903021623 91 115 10.0 14.0 0.00 0.00 0.00 54 1013.3
20260903021123 91 138 11.0 14.0 0.00 0.00 0.00 54 1013.1
20260903020622 91 144 9.0 12.0 0.00 0.00 0.00 54 1013.1
20260903020123 92 140 8.0 12.0 0.00 0.00 0.00 54 1013.1
20260903015620 92 150 5.0 12.0 0.00 0.00 0.00 55 1013.1
20260903015120 92 115 4.0 11.0 0.00 0.00 0.00 55 1012.9
20260903014621 92 89 4.0 11.0 0.00 0.00 0.00 54 1012.9
20260903014119 92 134 9.0 11.0 0.00 0.00 0.00 54 1012.8
20260903013619 92 116 7.0 12.0 0.00 0.00 0.00 54 1012.9
20260903013120 92 150 4.0 12.0 0.00 0.00 0.00 54 1012.7
20260903012619 92 123 2.0 12.0 0.00 0.00 0.00 54 1012.7
20260903012119 92 119 5.0 13.0 0.00 0.00 0.00 54 1012.5
20260903011619 92 121 8.0 13.0 0.00 0.00 0.00 54 1012.6
20260903011118 92 29 8.0 10.0 0.00 0.00 0.00 54 1012.5
20260903010617 92 33 4.0 10.0 0.00 0.00 0.00 54 1012.5
20260903010119 92 33 4.0 9.0 0.00 0.00 0.00 54 1012.5
20260903005617 93 36 4.0 15.0 0.00 0.00 0.00 53 1012.4
20260903005119 93 121 7.0 15.0 0.00 0.00 0.00 53 1012.4
20260903004616 93 127 8.0 14.0 0.00 0.00 0.00 53 1012.4
20260903004116 93 134 4.0 14.0 0.00 0.00 0.00 53 1012.5
20260903003615 94 95 1.0 13.0 0.00 0.00 0.00 53 1012.5
20260903003116 94 119 11.0 18.0 0.00 0.00 0.00 52 1012.5
20260903002615 94 128 4.0 18.0 0.00 0.00 0.00 52 1012.4
20260903002115 95 153 10.0 18.0 0.00 0.00 0.00 51 1012.3
20260903001616 96 126 4.0 18.0 0.00 0.00 0.00 49 1012.3
20260903001113 96 140 11.0 18.0 0.00 0.00 0.00 47 1012.3
20260903000613 97 86 10.0 11.0 0.00 0.00 0.00 46 1012.2
20260903000114 97 115 4.0 11.0 0.00 0.00 0.00 45 1012.3
20260902235613 97 136 5.0 13.0 0.00 0.00 0.00 44 1012.3
20260902235112 97 120 3.0 13.0 0.00 0.00 0.00 44 1012.3
20260902234614 97 62 5.0 13.0 0.00 0.00 0.00 44 1012.1
20260902234112 97 61 4.0 15.0 0.00 0.00 0.00 44 1012.1
20260902233612 97 104 6.0 15.0 0.00 0.00 0.00 44 1012.2
20260902233111 97 100 13.0 13.0 0.00 0.00 0.00 44 1012.2
20260902232613 98 77 10.0 14.0 0.00 0.00 0.00 43 1012.1
20260902232113 98 136 3.0 14.0 0.00 0.00 0.00 44 1012.2
20260902231610 97 106 6.0 12.0 0.00 0.00 0.00 43 1012.1
20260902231114 98 98 8.0 12.0 0.00 0.00 0.00 44 1012.1
20260902230610 98 71 3.0 12.0 0.00 0.00 0.00 44 1012.1
20260902230115 97 59 1.0 12.0 0.00 0.00 0.00 44 1012.1
20260902225614 98 61 9.0 15.0 0.00 0.00 0.00 44 1012.1
20260902225111 98 46 3.0 15.0 0.00 0.00 0.00 43 1012.3
20260902224612 98 92 8.0 12.0 0.00 0.00 0.00 44 1012.2
20260902224112 98 103 12.0 10.0 0.00 0.00 0.00 44 1012.2
20260902223610 98 80 2.0 10.0 0.00 0.00 0.00 44 1012.3
20260902223112 98 25 5.0 10.0 0.00 0.00 0.00 44 1012.3
20260902222609 98 97 6.0 14.0 0.00 0.00 0.00 45 1012.3
20260902222112 98 71 3.0 14.0 0.00 0.00 0.00 44 1012.4
20260902221612 98 59 7.0 14.0 0.00 0.00 0.00 45 1012.4
20260902221111 98 52 10.0 14.0 0.00 0.00 0.00 44 1012.4
20260902220615 98 126 5.0 10.0 0.00 0.00 0.00 44 1012.5
20260902220114 98 100 6.0 12.0 0.00 0.00 0.00 44 1012.6
20260902215613 98 65 4.0 12.0 0.00 0.00 0.00 44 1012.7
20260902215113 98 96 8.0 12.0 0.00 0.00 0.00 45 1012.7
20260902214610 98 79 5.0 12.0 0.00 0.00 0.00 45 1012.7
20260902214110 97 71 8.0 12.0 0.00 0.00 0.00 45 1012.7
20260902213614 97 55 6.0 12.0 0.00 0.00 0.00 45 1012.8
20260902213113 97 59 7.0 12.0 0.00 0.00 0.00 46 1012.8
20260902212613 97 82 5.0 15.0 0.00 0.00 0.00 46 1012.9
20260902212113 97 65 4.0 15.0 0.00 0.00 0.00 46 1013.0
20260902211612 97 32 12.0 13.0 0.00 0.00 0.00 47 1013.1
20260902211111 97 54 5.0 14.0 0.00 0.00 0.00 47 1013.1
20260902210613 97 49 7.0 14.0 0.00 0.00 0.00 47 1013.1
20260902210122 97 57 5.0 12.0 0.00 0.00 0.00 48 1013.2
20260902205620 97 111 6.0 12.0 0.00 0.00 0.00 47 1013.1
20260902205120 97 104 4.0 14.0 0.00 0.00 0.00 48 1013.2
20260902204620 97 55 7.0 14.0 0.00 0.00 0.00 48 1013.4
20260902204121 97 95 7.0 14.0 0.00 0.00 0.00 47 1013.4
20260902203619 97 65 3.0 12.0 0.00 0.00 0.00 47 1013.4
20260902203120 97 55 2.0 12.0 0.00 0.00 0.00 47 1013.4
20260902202621 97 65 8.0 12.0 0.00 0.00 0.00 47 1013.6
20260902202118 97 63 4.0 13.0 0.00 0.00 0.00 47 1013.7
20260902201618 97 59 4.0 13.0 0.00 0.00 0.00 47 1013.7
20260902201118 97 73 7.0 13.0 0.00 0.00 0.00 47 1013.9
20260902200617 96 55 1.0 14.0 0.00 0.00 0.00 47 1013.9
20260902200116 97 136 5.0 14.0 0.00 0.00 0.00 48 1014.0
20260902195616 97 39 7.0 9.0 0.00 0.00 0.00 47 1014.0
20260902195115 97 54 4.0 11.0 0.00 0.00 0.00 49 1014.1
20260902194617 96 38 5.0 11.0 0.00 0.00 0.00 49 1014.2
20260902194115 96 69 5.0 10.0 0.00 0.00 0.00 51 1014.3
20260902193615 96 66 8.0 11.0 0.00 0.00 0.00 49 1014.4
20260902193115 96 77 1.0 11.0 0.00 0.00 0.00 49 1014.4
20260902192614 96 71 8.0 10.0 0.00 0.00 0.00 48 1014.6
20260902192114 96 323 1.0 11.0 0.00 0.00 0.00 51 1014.6
20260902191614 96 49 6.0 11.0 0.00 0.00 0.00 49 1014.8
20260902191114 96 80 4.0 11.0 0.00 0.00 0.00 49 1014.8
20260902190613 96 67 2.0 12.0 0.00 0.00 0.00 50 1014.9
20260902190113 96 59 7.0 12.0 0.00 0.00 0.00 49 1015.0
20260902185612 96 36 9.0 11.0 0.00 0.00 0.00 49 1015.0
20260902185115 96 71 9.0 11.0 0.00 0.00 0.00 49 1015.2
20260902184613 95 360 1.0 11.0 0.00 0.00 0.00 50 1015.0
20260902184111 95 69 2.0 11.0 0.00 0.00 0.00 50 1015.2
20260902183612 94 84 4.0 13.0 0.00 0.00 0.00 49 1015.1
20260902183118 95 70 10.0 13.0 0.00 0.00 0.00 50 1015.4
20260902182612 95 26 10.0 13.0 0.00 0.00 0.00 49 1015.5
20260902182114 95 93 4.0 10.0 0.00 0.00 0.00 50 1015.5
20260902181614 95 80 3.0 10.0 0.00 0.00 0.00 51 1015.6
20260902181112 94 80 4.0 9.0 0.00 0.00 0.00 51 1015.8
20260902180611 94 146 6.0 9.0 0.00 0.00 0.00 52 1015.8
20260902180117 94 109 2.0 9.0 0.00 0.00 0.00 52 1015.9
20260902175614 93 90 9.0 11.0 0.00 0.00 0.00 54 1016.2
20260902175115 93 70 5.0 11.0 0.00 0.00 0.00 53 1016.2
20260902174613 93 116 4.0 10.0 0.00 0.00 0.00 54 1016.2
20260902174112 93 211 7.0 10.0 0.00 0.00 0.00 55 1016.4
20260902173613 94 146 5.0 9.0 0.00 0.00 0.00 53 1016.5
20260902173111 93 63 4.0 7.0 0.00 0.00 0.00 54 1016.4
20260902172613 92 195 2.0 9.0 0.00 0.00 0.00 54 1016.6
20260902172126 93 134 1.0 9.0 0.00 0.00 0.00 53 1016.6
20260902171627 93 85 8.0 9.0 0.00 0.00 0.00 54 1016.6
20260902171124 92 105 6.0 9.0 0.00 0.00 0.00 55 1016.7
20260902170623 92 146 5.0 9.0 0.00 0.00 0.00 56 1016.8
20260902170125 92 149 6.0 9.0 0.00 0.00 0.00 55 1016.9
20260902165624 92 197 2.0 9.0 0.00 0.00 0.00 56 1016.8
20260902165123 92 111 4.0 9.0 0.00 0.00 0.00 55 1016.9
20260902164623 91 217 3.0 7.0 0.00 0.00 0.00 56 1016.9
20260902164122 91 175 4.0 9.0 0.00 0.00 0.00 56 1016.9
20260902163625 91 84 3.0 9.0 0.00 0.00 0.00 56 1017.0
20260902163123 91 62 5.0 10.0 0.00 0.00 0.00 56 1017.0
20260902162624 91 81 1.0 10.0 0.00 0.00 0.00 56 1017.0
20260902162123 91 53 10.0 7.0 0.00 0.00 0.00 56 1017.0
20260902161623 91 151 4.0 7.0 0.00 0.00 0.00 57 1017.1
20260902161124 91 104 3.0 9.0 0.00 0.00 0.00 56 1017.0
20260902160632 91 93 6.0 9.0 0.00 0.00 0.00 57 1017.1
20260902160120 91 79 1.0 6.0 0.00 0.00 0.00 58 1017.1
20260902155549 90 88 3.0 6.0 0.00 0.00 0.00 59 1017.1
20260902155120 89 167 1.0 7.0 0.00 0.00 0.00 61 1017.0
20260902154620 89 167 1.0 7.0 0.00 0.00 0.00 60 1017.1
20260902154119 89 171 4.0 7.0 0.00 0.00 0.00 60 1017.1
20260902153619 89 82 3.0 7.0 0.00 0.00 0.00 61 1017.0
20260902153119 88 139 2.0 7.0 0.00 0.00 0.00 62 1017.2
20260902152618 88 212 3.0 6.0 0.00 0.00 0.00 63 1017.0
20260902152119 88 202 2.0 7.0 0.00 0.00 0.00 61 1017.1
20260902151622 88 186 2.0 9.0 0.00 0.00 0.00 63 1017.1
20260902151128 88 117 2.0 9.0 0.00 0.00 0.00 63 1017.1
20260902150624 88 123 4.0 6.0 0.00 0.00 0.00 63 1017.1
20260902150131 87 129 3.0 6.0 0.00 0.00 0.00 64 1017.0
20260902145618 87 95 6.0 5.0 0.00 0.00 0.00 65 1016.9
20260902145116 86 0 0.0 6.0 0.00 0.00 0.00 67 1016.9
20260902144618 86 82 3.0 6.0 0.00 0.00 0.00 67 1017.0
20260902144116 85 137 4.0 6.0 0.00 0.00 0.00 67 1017.0
20260902143621 85 159 5.0 5.0 0.00 0.00 0.00 67 1017.0
20260902143117 85 192 2.0 7.0 0.00 0.00 0.00 68 1017.1
20260902142615 85 191 1.0 8.0 0.00 0.00 0.00 68 1017.2
20260902142114 85 155 3.0 8.0 0.00 0.00 0.00 69 1017.2
20260902141623 84 144 3.0 8.0 0.00 0.00 0.00 68 1017.1
20260902141121 84 184 4.0 9.0 0.00 0.00 0.00 69 1017.1
20260902140548 84 157 2.0 10.0 0.00 0.00 0.00 69 1017.2
20260902140114 84 119 4.0 10.0 0.00 0.00 0.00 70 1017.1
20260902135613 84 171 5.0 8.0 0.00 0.00 0.00 71 1017.1
20260902135113 83 164 5.0 8.0 0.00 0.00 0.00 71 1017.1
20260902134613 83 147 2.0 8.0 0.00 0.00 0.00 71 1017.0
20260902134113 83 163 5.0 8.0 0.00 0.00 0.00 72 1017.0
20260902133614 83 161 5.0 8.0 0.00 0.00 0.00 72 1017.0
20260902133114 83 160 6.0 6.0 0.00 0.00 0.00 72 1017.0
20260902132612 82 155 2.0 5.0 0.00 0.00 0.00 72 1017.0
20260902132110 82 159 1.0 5.0 0.00 0.00 0.00 73 1016.9
20260902131612 82 159 4.0 5.0 0.00 0.00 0.00 73 1017.0
20260902131112 81 157 1.0 5.0 0.00 0.00 0.00 74 1016.9
20260902130613 81 159 4.0 4.0 0.00 0.00 0.00 74 1016.8
20260902130113 81 155 1.0 5.0 0.00 0.00 0.00 75 1016.8
20260902125613 80 155 2.0 5.0 0.00 0.00 0.00 76 1016.8
20260902125111 80 155 2.0 5.0 0.00 0.00 0.00 76 1016.7
20260902124612 80 157 1.0 5.0 0.00 0.00 0.00 77 1016.6
20260902124121 79 159 2.0 5.0 0.00 0.00 0.00 78 1016.6
20260902123643 79 161 4.0 4.0 0.00 0.00 0.00 78 1016.6
20260902123111 79 163 1.0 4.0 0.00 0.00 0.00 78 1016.4
20260902122634 79 163 1.0 4.0 0.00 0.00 0.00 78 1016.3
20260902122057 79 163 2.0 2.0 0.00 0.00 0.00 78 1016.2
20260902121631 79 163 1.0 2.0 0.00 0.00 0.00 78 1016.3
20260902121059 79 163 1.0 2.0 0.00 0.00 0.00 78 1016.2
20260902120618 79 0 0.0 2.0 0.00 0.00 0.00 78 1016.3
20260902120144 79 163 1.0 2.0 0.00 0.00 0.00 77 1016.2
20260902115614 79 163 1.0 2.0 0.00 0.00 0.00 77 1016.2
20260902115047 79 163 1.0 2.0 0.00 0.00 0.00 76 1016.2
20260902114625 79 163 1.0 2.0 0.00 0.00 0.00 76 1016.3
20260902114103 79 0 0.0 2.0 0.00 0.00 0.00 76 1016.3
20260902113643 79 0 0.0 2.0 0.00 0.00 0.00 76 1016.3
20260902113123 79 22 1.0 2.0 0.00 0.00 0.00 76 1016.3
20260902112611 79 0 0.0 4.0 0.00 0.00 0.00 76 1016.3
20260902112047 79 23 1.0 4.0 0.00 0.00 0.00 76 1016.4
20260902111535 79 25 2.0 4.0 0.00 0.00 0.00 77 1016.4
20260902111023 79 26 3.0 4.0 0.00 0.00 0.00 77 1016.4
20260902110512 79 24 2.0 3.0 0.00 0.00 0.00 76 1016.4
20260902110008 80 24 2.0 3.0 0.00 0.00 0.00 76 1016.4
20260902105452 80 23 1.0 3.0 0.00 0.00 0.00 75 1016.3
20260902105043 80 24 2.0 3.0 0.00 0.00 0.00 75 1016.3
20260902104532 80 24 2.0 3.0 0.00 0.00 0.00 75 1016.2
20260902104024 80 25 2.0 3.0 0.00 0.00 0.00 75 1016.2
20260902103516 80 26 2.0 3.0 0.00 0.00 0.00 74 1016.3
20260902103010 80 26 3.0 3.0 0.00 0.00 0.00 73 1016.2
20260902102512 81 26 2.0 2.0 0.00 0.00 0.00 73 1016.2
20260902102010 81 26 2.0 3.0 0.00 0.00 0.00 73 1016.3
20260902101504 81 28 1.0 3.0 0.00 0.00 0.00 73 1016.2
20260902101013 81 27 2.0 3.0 0.00 0.00 0.00 73 1016.1
20260902100504 81 28 2.0 3.0 0.00 0.00 0.00 72 1016.1
20260902100015 81 29 1.0 3.0 0.00 0.00 0.00 72 1016.1
20260902095504 81 27 3.0 3.0 0.00 0.00 0.00 71 1016.1
20260902095003 82 27 2.0 2.0 0.00 0.00 0.00 70 1016.1
20260902094503 82 32 1.0 2.0 0.00 0.00 0.00 70 1016.1
20260902094002 82 31 1.0 2.0 0.00 0.00 0.00 70 1016.1